| time (UTC) | temp F | wind direction | speed MPH | gust MPH | rain 1hr in | rain 24hr in | rain mn in | humidity % | barometer mb |
| 20260904171719 | 72 | 320 | 1.0 | 5.0 | 0.00 | 0.00 | 0.00 | 72 | 1009.1 |
| 20260904170819 | 73 | 329 | 0.0 | 5.0 | 0.00 | 0.00 | 0.00 | 71 | 1009.2 |
| 20260904165919 | 73 | 324 | 1.0 | 5.0 | 0.00 | 0.00 | 0.00 | 69 | 1009.1 |
| 20260904165019 | 73 | 331 | 0.0 | 3.0 | 0.00 | 0.00 | 0.00 | 71 | 1009.2 |
| 20260904164119 | 74 | 281 | 1.0 | 4.0 | 0.00 | 0.00 | 0.00 | 68 | 1009.3 |
| 20260904163219 | 75 | 302 | 1.0 | 5.0 | 0.00 | 0.00 | 0.00 | 71 | 1009.4 |
| 20260904161419 | 75 | 248 | 1.0 | 4.0 | 0.00 | 0.00 | 0.00 | 74 | 1009.5 |
| 20260904160519 | 74 | 251 | 1.0 | 4.0 | 0.00 | 0.00 | 0.00 | 73 | 1009.5 |
| 20260904155619 | 74 | 334 | 1.0 | 8.0 | 0.00 | 0.00 | 0.00 | 71 | 1009.5 |
| 20260904154719 | 73 | 322 | 1.0 | 6.0 | 0.00 | 0.00 | 0.00 | 72 | 1009.5 |
| 20260904153819 | 74 | 333 | 2.0 | 12.0 | 0.00 | 0.00 | 0.00 | 68 | 1009.6 |
| 20260904152919 | 74 | 320 | 1.0 | 8.0 | 0.00 | 0.00 | 0.00 | 69 | 1009.7 |
| 20260904152019 | 73 | 341 | 1.0 | 7.0 | 0.00 | 0.00 | 0.00 | 73 | 1009.8 |
| 20260904151119 | 73 | 284 | 0.0 | 3.0 | 0.00 | 0.00 | 0.00 | 76 | 1009.9 |
| 20260904150219 | 72 | 326 | 1.0 | 6.0 | 0.00 | 0.00 | 0.00 | 78 | 1009.9 |
| 20260904145319 | 71 | 295 | 1.0 | 11.0 | 0.00 | 0.00 | 0.00 | 77 | 1009.9 |
| 20260904144419 | 70 | 318 | 1.0 | 4.0 | 0.00 | 0.00 | 0.00 | 83 | 1009.9 |
| 20260904143519 | 68 | 321 | 1.0 | 9.0 | 0.00 | 0.00 | 0.00 | 83 | 1009.9 |
| 20260904142619 | 67 | 336 | 0.0 | 8.0 | 0.00 | 0.00 | 0.00 | 88 | 1010.0 |
| 20260904140819 | 65 | 334 | 0.0 | 5.0 | 0.00 | 0.00 | 0.00 | 92 | 1010.1 |
| 20260904135919 | 64 | 329 | 1.0 | 5.0 | 0.00 | 0.00 | 0.00 | 92 | 1010.0 |
| 20260904135019 | 63 | 330 | 1.0 | 6.0 | 0.00 | 0.00 | 0.00 | 93 | 1010.0 |
| 20260904134119 | 63 | 329 | 1.0 | 6.0 | 0.00 | 0.00 | 0.00 | 94 | 1010.0 |
| 20260904133219 | 62 | 333 | 1.0 | 5.0 | 0.00 | 0.00 | 0.00 | 94 | 1009.9 |
| 20260904132319 | 62 | 334 | 0.0 | 9.0 | 0.00 | 0.00 | 0.00 | 95 | 1010.0 |
| 20260904131419 | 62 | 331 | 1.0 | 6.0 | 0.00 | 0.00 | 0.00 | 94 | 1009.9 |
| 20260904130519 | 62 | 326 | 0.0 | 4.0 | 0.00 | 0.00 | 0.00 | 95 | 1010.0 |
| 20260904125619 | 62 | 323 | 0.0 | 4.0 | 0.00 | 0.00 | 0.00 | 95 | 1010.0 |
| 20260904124719 | 61 | 322 | 0.0 | 1.0 | 0.00 | 0.00 | 0.00 | 95 | 1010.0 |
| 20260904123819 | 61 | 318 | 0.0 | 4.0 | 0.00 | 0.00 | 0.00 | 95 | 1010.0 |
| 20260904122919 | 61 | 280 | 0.0 | 4.0 | 0.00 | 0.00 | 0.00 | 95 | 1009.9 |
| 20260904122019 | 61 | 0 | 0.0 | 0.0 | 0.00 | 0.00 | 0.00 | 95 | 1009.9 |
| 20260904120220 | 60 | 159 | 0.0 | 1.0 | 0.00 | 0.00 | 0.00 | 95 | 1009.7 |
| 20260904115318 | 60 | 0 | 0.0 | 0.0 | 0.00 | 0.00 | 0.00 | 95 | 1009.7 |
| 20260904113519 | 59 | 159 | 0.0 | 2.0 | 0.00 | 0.00 | 0.00 | 95 | 1009.6 |
| 20260904112619 | 59 | 159 | 0.0 | 2.0 | 0.00 | 0.00 | 0.00 | 95 | 1009.5 |
| 20260904110819 | 58 | 0 | 0.0 | 0.0 | 0.00 | 0.00 | 0.00 | 95 | 1009.4 |
| 20260904105919 | 58 | 0 | 0.0 | 0.0 | 0.00 | 0.00 | 0.00 | 95 | 1009.4 |
| 20260904105018 | 57 | 159 | 0.0 | 1.0 | 0.00 | 0.00 | 0.00 | 94 | 1009.3 |
| 20260904104118 | 57 | 159 | 0.0 | 1.0 | 0.00 | 0.00 | 0.00 | 94 | 1009.3 |
| 20260904101418 | 57 | 0 | 0.0 | 0.0 | 0.00 | 0.00 | 0.00 | 94 | 1009.1 |
| 20260904100518 | 56 | 0 | 0.0 | 0.0 | 0.00 | 0.00 | 0.00 | 94 | 1009.1 |
| 20260904094718 | 56 | 0 | 0.0 | 0.0 | 0.00 | 0.00 | 0.00 | 94 | 1008.9 |
| 20260904093818 | 56 | 0 | 0.0 | 0.0 | 0.00 | 0.00 | 0.00 | 94 | 1009.0 |
| 20260904092918 | 56 | 0 | 0.0 | 0.0 | 0.00 | 0.00 | 0.00 | 94 | 1009.0 |
| 20260904092018 | 56 | 0 | 0.0 | 0.0 | 0.00 | 0.00 | 0.00 | 94 | 1009.1 |
| 20260904091118 | 56 | 0 | 0.0 | 0.0 | 0.00 | 0.00 | 0.00 | 94 | 1009.2 |
| 20260904085318 | 56 | 0 | 0.0 | 0.0 | 0.00 | 0.00 | 0.00 | 94 | 1009.0 |
| 20260904083518 | 56 | 0 | 0.0 | 0.0 | 0.00 | 0.00 | 0.00 | 94 | 1009.1 |
| 20260904081718 | 57 | 0 | 0.0 | 0.0 | 0.00 | 0.00 | 0.00 | 94 | 1009.1 |
| 20260904080818 | 57 | 0 | 0.0 | 0.0 | 0.00 | 0.00 | 0.00 | 94 | 1009.1 |
| 20260904075918 | 57 | 0 | 0.0 | 0.0 | 0.00 | 0.00 | 0.00 | 94 | 1009.1 |
| 20260904075018 | 57 | 0 | 0.0 | 0.0 | 0.00 | 0.00 | 0.00 | 94 | 1009.2 |
| 20260904074118 | 57 | 0 | 0.0 | 0.0 | 0.00 | 0.00 | 0.00 | 94 | 1009.2 |
| 20260904073218 | 58 | 0 | 0.0 | 0.0 | 0.00 | 0.00 | 0.00 | 94 | 1009.3 |
| 20260904072318 | 58 | 0 | 0.0 | 0.0 | 0.00 | 0.00 | 0.00 | 94 | 1009.2 |
| 20260904071418 | 58 | 0 | 0.0 | 0.0 | 0.00 | 0.00 | 0.00 | 94 | 1009.2 |
| 20260904065618 | 58 | 0 | 0.0 | 0.0 | 0.00 | 0.00 | 0.00 | 94 | 1009.2 |
| 20260904064718 | 58 | 0 | 0.0 | 0.0 | 0.00 | 0.00 | 0.00 | 94 | 1009.4 |
| 20260904063818 | 58 | 0 | 0.0 | 0.0 | 0.00 | 0.00 | 0.00 | 94 | 1009.5 |
| 20260904062918 | 58 | 0 | 0.0 | 0.0 | 0.00 | 0.00 | 0.00 | 94 | 1009.5 |
| 20260904062018 | 58 | 0 | 0.0 | 0.0 | 0.00 | 0.00 | 0.00 | 93 | 1009.6 |
| 20260904061118 | 59 | 0 | 0.0 | 0.0 | 0.00 | 0.00 | 0.00 | 94 | 1009.7 |
| 20260904060218 | 59 | 0 | 0.0 | 0.0 | 0.00 | 0.00 | 0.00 | 93 | 1009.8 |
| 20260904054418 | 59 | 0 | 0.0 | 0.0 | 0.00 | 0.02 | 0.00 | 94 | 1010.0 |
| 20260904053518 | 60 | 0 | 0.0 | 0.0 | 0.00 | 0.02 | 0.00 | 93 | 1010.2 |
| 20260904052618 | 60 | 0 | 0.0 | 0.0 | 0.00 | 0.02 | 0.00 | 93 | 1010.3 |
| 20260904051718 | 60 | 0 | 0.0 | 0.0 | 0.00 | 0.02 | 0.00 | 94 | 1010.3 |
| 20260904050818 | 60 | 0 | 0.0 | 0.0 | 0.00 | 0.02 | 0.00 | 93 | 1010.4 |
| 20260904045918 | 60 | 0 | 0.0 | 0.0 | 0.00 | 0.02 | 0.00 | 93 | 1010.5 |
| 20260904045018 | 60 | 0 | 0.0 | 0.0 | 0.00 | 0.02 | 0.00 | 93 | 1010.5 |
| 20260904044118 | 61 | 0 | 0.0 | 0.0 | 0.00 | 0.02 | 0.00 | 93 | 1010.5 |
| 20260904042318 | 61 | 0 | 0.0 | 0.0 | 0.00 | 0.02 | 0.00 | 93 | 1010.4 |
| 20260904040518 | 62 | 0 | 0.0 | 0.0 | 0.00 | 0.02 | 0.00 | 93 | 1010.5 |
| 20260904035618 | 62 | 0 | 0.0 | 0.0 | 0.00 | 0.02 | 0.02 | 93 | 1010.7 |
| 20260904033818 | 63 | 0 | 0.0 | 0.0 | 0.00 | 0.02 | 0.02 | 93 | 1010.8 |
| 20260904032918 | 63 | 0 | 0.0 | 0.0 | 0.00 | 0.02 | 0.02 | 93 | 1010.8 |
| 20260904032017 | 63 | 0 | 0.0 | 0.0 | 0.00 | 0.02 | 0.02 | 93 | 1010.9 |
| 20260904025318 | 64 | 0 | 0.0 | 0.0 | 0.00 | 0.02 | 0.02 | 93 | 1011.0 |
| 20260904024418 | 64 | 0 | 0.0 | 0.0 | 0.00 | 0.02 | 0.02 | 93 | 1011.1 |
| 20260904023518 | 64 | 0 | 0.0 | 0.0 | 0.00 | 0.02 | 0.02 | 93 | 1011.1 |
| 20260904022617 | 65 | 0 | 0.0 | 0.0 | 0.00 | 0.02 | 0.02 | 93 | 1010.9 |
| 20260904020817 | 65 | 0 | 0.0 | 0.0 | 0.00 | 0.02 | 0.02 | 93 | 1011.0 |
| 20260904015918 | 65 | 0 | 0.0 | 0.0 | 0.00 | 0.02 | 0.02 | 93 | 1011.1 |
| 20260904015017 | 65 | 0 | 0.0 | 0.0 | 0.00 | 0.02 | 0.02 | 93 | 1011.0 |
| 20260904014117 | 65 | 0 | 0.0 | 0.0 | 0.00 | 0.02 | 0.02 | 93 | 1011.1 |
| 20260904013218 | 66 | 0 | 0.0 | 0.0 | 0.00 | 0.02 | 0.02 | 93 | 1011.2 |
| 20260904012317 | 66 | 0 | 0.0 | 0.0 | 0.00 | 0.02 | 0.02 | 93 | 1011.2 |
| 20260904005617 | 66 | 0 | 0.0 | 0.0 | 0.00 | 0.02 | 0.02 | 93 | 1011.1 |
| 20260904004717 | 66 | 0 | 0.0 | 0.0 | 0.00 | 0.02 | 0.02 | 92 | 1011.0 |
| 20260904003817 | 66 | 0 | 0.0 | 0.0 | 0.00 | 0.02 | 0.02 | 92 | 1011.0 |
| 20260904002917 | 67 | 0 | 0.0 | 0.0 | 0.00 | 0.02 | 0.02 | 92 | 1010.7 |
| 20260904002017 | 67 | 0 | 0.0 | 0.0 | 0.00 | 0.02 | 0.02 | 92 | 1010.5 |
| 20260904001117 | 67 | 0 | 0.0 | 0.0 | 0.00 | 0.02 | 0.02 | 92 | 1010.6 |
| 20260904000218 | 67 | 0 | 0.0 | 0.0 | 0.00 | 0.02 | 0.02 | 92 | 1010.5 |
| 20260903235317 | 68 | 0 | 0.0 | 0.0 | 0.00 | 0.02 | 0.02 | 92 | 1010.3 |
| 20260903234417 | 68 | 0 | 0.0 | 0.0 | 0.00 | 0.02 | 0.02 | 92 | 1010.3 |
| 20260903231717 | 69 | 0 | 0.0 | 0.0 | 0.00 | 0.02 | 0.02 | 90 | 1010.4 |
| 20260903225917 | 70 | 0 | 0.0 | 0.0 | 0.00 | 0.02 | 0.02 | 90 | 1010.3 |
| 20260903225017 | 70 | 0 | 0.0 | 0.0 | 0.00 | 0.02 | 0.02 | 90 | 1010.3 |
| 20260903224117 | 70 | 0 | 0.0 | 0.0 | 0.00 | 0.02 | 0.02 | 90 | 1010.3 |
| 20260903223217 | 70 | 0 | 0.0 | 0.0 | 0.00 | 0.02 | 0.02 | 90 | 1010.2 |
| 20260903222317 | 71 | 161 | 0.0 | 2.0 | 0.00 | 0.02 | 0.02 | 89 | 1010.3 |
| 20260903220517 | 71 | 0 | 0.0 | 0.0 | 0.00 | 0.02 | 0.02 | 89 | 1010.5 |
| 20260903215617 | 71 | 161 | 0.0 | 4.0 | 0.00 | 0.02 | 0.02 | 89 | 1010.7 |
| 20260903214717 | 71 | 161 | 0.0 | 1.0 | 0.00 | 0.02 | 0.02 | 89 | 1010.8 |
| 20260903212917 | 72 | 161 | 0.0 | 2.0 | 0.00 | 0.02 | 0.02 | 88 | 1010.7 |
| 20260903211117 | 72 | 161 | 0.0 | 1.0 | 0.00 | 0.02 | 0.02 | 87 | 1010.7 |
| 20260903210217 | 72 | 160 | 0.0 | 5.0 | 0.00 | 0.02 | 0.02 | 86 | 1010.7 |
| 20260903205317 | 72 | 161 | 0.0 | 5.0 | 0.00 | 0.02 | 0.02 | 86 | 1010.8 |
| 20260903204417 | 72 | 162 | 1.0 | 5.0 | 0.00 | 0.02 | 0.02 | 87 | 1010.7 |
| 20260903203517 | 72 | 162 | 0.0 | 4.0 | 0.00 | 0.02 | 0.02 | 88 | 1010.7 |
| 20260903202617 | 71 | 164 | 0.0 | 5.0 | 0.00 | 0.02 | 0.02 | 89 | 1010.8 |
| 20260903195917 | 70 | 167 | 0.0 | 4.0 | 0.00 | 0.02 | 0.02 | 89 | 1010.9 |
| 20260903195017 | 70 | 170 | 0.0 | 6.0 | 0.00 | 0.02 | 0.02 | 89 | 1011.1 |
| 20260903194117 | 70 | 171 | 0.0 | 5.0 | 0.00 | 0.02 | 0.02 | 89 | 1011.2 |
| 20260903193216 | 70 | 171 | 0.0 | 6.0 | 0.00 | 0.02 | 0.02 | 89 | 1011.1 |
| 20260903192317 | 70 | 163 | 0.0 | 2.0 | 0.00 | 0.02 | 0.02 | 90 | 1011.3 |
| 20260903191417 | 70 | 164 | 0.0 | 1.0 | 0.00 | 0.02 | 0.02 | 90 | 1011.3 |
| 20260903185617 | 69 | 164 | 0.0 | 4.0 | 0.00 | 0.02 | 0.02 | 92 | 1011.2 |
| 20260903184717 | 68 | 164 | 0.0 | 4.0 | 0.00 | 0.02 | 0.02 | 92 | 1011.2 |
| 20260903183817 | 68 | 164 | 0.0 | 1.0 | 0.00 | 0.02 | 0.02 | 93 | 1011.4 |
| 20260903182917 | 67 | 0 | 0.0 | 0.0 | 0.00 | 0.02 | 0.02 | 93 | 1011.6 |
| 20260903182017 | 67 | 0 | 0.0 | 0.0 | 0.00 | 0.02 | 0.02 | 94 | 1011.8 |
| 20260903181117 | 66 | 0 | 0.0 | 0.0 | 0.00 | 0.02 | 0.02 | 94 | 1011.7 |
| 20260903180216 | 66 | 0 | 0.0 | 0.0 | 0.00 | 0.02 | 0.02 | 94 | 1011.8 |
| 20260903175317 | 66 | 0 | 0.0 | 0.0 | 0.00 | 0.02 | 0.02 | 94 | 1011.8 |
| 20260903174416 | 66 | 164 | 0.0 | 1.0 | 0.00 | 0.02 | 0.02 | 94 | 1011.9 |
| 20260903173516 | 66 | 164 | 0.0 | 1.0 | 0.00 | 0.02 | 0.02 | 94 | 1011.9 |
| 20260903172616 | 65 | 0 | 0.0 | 0.0 | 0.00 | 0.02 | 0.02 | 94 | 1012.0 |